Simultaneous Nadir Overpasses (SNOs) Predictions

Prediction of SNOs between GOES-16 and METOP-B Satellite Orbit:

Table of predicted SNOs for the next 14.0 days since TLE Epoch: 11/30/2018
Index Date Time (GOES-16) GOES-16 Lat,Lon METOP-B Lat,Lon Distance(km) Time Diff (sec)
1 12/01/2018 02:24:08 0.02, -75.20 0.22, -74.39 93.22 80
2 12/02/2018 14:43:01 -0.01, -75.21 0.85, -78.94 425.48 80
3 12/03/2018 14:25:03 -0.01, -75.22 -0.32, -73.96 143.91 80
4 12/05/2018 02:44:04 0.01, -75.21 -0.74, -78.55 379.94 80
5 12/06/2018 02:20:46 0.01, -75.22 0.36, -73.55 189.74 80
6 12/07/2018 14:39:39 -0.00, -75.24 0.64, -78.12 327.82 80
7 12/08/2018 14:21:41 0.00, -75.25 -0.47, -73.12 242.19 80
8 12/10/2018 02:40:43 -0.01, -75.25 -0.54, -77.72 280.71 80
9 12/11/2018 02:17:25 -0.01, -75.27 0.57, -72.73 289.51 80
10 12/12/2018 14:38:58 0.01, -75.29 0.42, -77.29 227.16 80
11 12/13/2018 14:15:39 0.00, -75.31 -0.69, -72.30 343.47 80




NCC Satellite Simultaneous Nadir Overpasses (SNOs) Prediction Service
